EW5589 Weather Reports


time (UTC)temp
F
wind
direction
speed
knots
gust
knots
rain 1hr
in
rain 24hr
in
rain mn
in
humidity
%
barometer
mb
20260503020003 43 105 1.7 4.3 0.00 0.00 0.00 73 1015.0
20260503014545 43 145 0.9 2.6 0.00 0.00 0.00 73 1015.0
20260503013045 43 85 1.7 3.5 0.00 0.00 0.00 74 1014.9
20260503011526 44 72 2.6 5.2 0.00 0.00 0.00 74 1014.9
20260503010028 44 88 2.6 5.2 0.00 0.00 0.00 73 1014.9
20260503004509 44 88 0.0 4.3 0.00 0.00 0.00 73 1014.8
20260503003013 44 89 2.6 5.2 0.00 0.00 0.00 73 1014.7
20260503001509 44 117 1.7 5.2 0.00 0.00 0.00 72 1014.6
20260503000010 44 119 1.7 6.1 0.00 0.00 0.00 71 1014.5
20260502234504 0 0.0 0.0 0.00 0.00 0.00 1014.5
20260502233102 44 111 0.9 7.0 0.00 0.00 0.00 68 1014.4
20260502231505 45 110 1.7 7.0 0.00 0.00 0.00 68 1014.4
20260502230002 45 142 2.6 7.0 0.00 0.00 0.00 67 1014.3
20260502224603 46 88 3.5 8.7 0.00 0.00 0.00 63 1014.3
20260502223101 46 360 5.2 9.6 0.00 0.00 0.00 63 1014.2
20260502221558 46 360 5.2 7.8 0.00 0.00 0.00 62 1014.2
20260502220058 46 360 5.2 7.8 0.00 0.00 0.00 61 1014.3
20260502214557 46 360 2.6 8.7 0.00 0.00 0.00 65 1014.2
20260502213107 46 360 1.7 7.0 0.00 0.00 0.00 66 1014.2
20260502211540 46 360 3.5 8.7 0.00 0.00 0.00 64 1014.1
20260502210038 46 360 4.3 9.6 0.00 0.00 0.00 65 1014.2
20260502204534 46 360 4.3 8.7 0.00 0.00 0.00 67 1014.2
20260502203030 46 360 3.5 10.4 0.00 0.00 0.00 68 1014.2
20260502201526 46 360 5.2 10.4 0.00 0.00 0.00 67 1014.3
20260502200038 46 360 4.3 11.3 0.00 0.00 0.00 69 1014.3
20260502194524 46 360 3.5 9.6 0.00 0.00 0.00 69 1014.3
20260502193024 46 360 5.2 13.9 0.00 0.00 0.00 67 1014.4
20260502191523 46 360 5.2 10.4 0.00 0.00 0.00 69 1014.6
20260502190021 46 322 6.1 15.6 0.00 0.00 0.00 70 1014.6
20260502184503 46 252 7.0 13.0 0.00 0.00 0.00 68 1014.4
20260502183003 47 255 5.2 14.8 0.00 0.00 0.00 66 1014.5
20260502181543 47 256 6.1 13.0 0.00 0.00 0.00 68 1014.4
20260502163042 44 360 6.1 15.6 0.00 0.00 0.00 72 1014.5
20260502161524 44 360 7.0 14.8 0.00 0.00 0.00 70 1014.6
20260502151601 44 360 2.6 10.4 0.00 0.00 0.00 73 1014.7
20260502150123 43 360 2.6 13.9 0.00 0.00 0.00 73 1014.8
20260502123050 40 360 6.1 10.4 0.00 0.00 0.00 82 1015.3
20260502121535 39 360 7.0 10.4 0.00 0.00 0.00 84 1015.5
20260502114511 39 360 7.8 12.2 0.00 0.00 0.00 86 1015.5
20260502113009 38 360 6.1 13.0 0.00 0.00 0.00 86 1015.3
20260502111552 38 360 6.1 8.7 0.00 0.00 0.00 88 1015.3
20260502110050 37 360 5.2 7.8 0.00 0.00 0.00 89 1015.1
20260502104530 37 360 2.6 7.0 0.00 0.00 0.00 89 1015.0
20260502103055 37 360 3.5 6.1 0.00 0.00 0.00 89 1014.9
20260502101507 36 360 4.3 6.1 0.00 0.00 0.00 88 1014.7
20260502091525 38 360 5.2 8.7 0.00 0.00 0.00 86 1014.2
20260502071500 41 360 5.2 7.8 0.00 0.00 0.00 81 1013.4
20260502070105 41 360 4.3 9.6 0.00 0.00 0.00 81 1013.3
20260502064558 41 360 3.5 6.1 0.00 0.00 0.00 80 1013.3
20260502063124 41 360 1.7 6.1 0.00 0.00 0.00 80 1013.4
20260502061559 41 360 1.7 6.1 0.00 0.00 0.00 81 1013.6
20260502060106 42 360 1.7 5.2 0.00 0.00 0.00 84 1013.4
20260502054617 42 360 1.7 3.5 0.00 0.00 0.00 85 1013.4
20260502053108 43 360 0.9 3.5 0.00 0.00 0.00 85 1013.3
20260502051556 43 360 2.6 5.2 0.00 0.00 0.00 86 1013.3
20260502050037 43 360 3.5 5.2 0.00 0.00 0.00 86 1013.3
20260502044537 43 360 3.5 5.2 0.00 0.00 0.00 86 1013.3
20260502043022 43 360 2.6 5.2 0.00 0.00 0.00 86 1013.2
20260502041519 43 360 0.0 3.5 0.00 0.00 0.00 86 1013.3
20260502034602 43 360 2.6 6.1 0.00 0.00 0.00 91 1013.3
20260502033044 43 360 0.9 4.3 0.00 0.00 0.00 92 1013.2
20260502031542 43 360 0.0 1.7 0.00 0.00 0.00 91 1013.2
20260502030024 44 360 0.9 3.5 0.00 0.00 0.00 91 1013.2
20260502024523 44 360 1.7 3.5 0.00 0.00 0.00 91 1013.2
20260502023006 44 360 2.6 4.3 0.00 0.00 0.00 90 1013.2
20260502021505 45 360 1.7 4.3 0.00 0.00 0.00 90 1013.2